Location: Borovka
(49.7741°N, 14.5280°E)
Time: 04:14:00
(UTC+00:00)

EO-79 - Visible Passes

Search period start: 08 March 2026 00:00
Search period end: 18 March 2026 00:00
Orbit: 511 x 522 km, 98.1° (Epoch: 7 March)

Date Brightness Start Highest point End Pass type
(mag) Time Alt. Az. Time Alt. Az. Time Alt. Az.
8 Mar ? 17:28:39 10° WSW 17:30:03 12° W 17:31:26 10° WNW visible
9 Mar ? 04:53:05 10° NNE 04:56:45 45° E 05:00:21 10° S visible
10 Mar ? 04:38:38 10° NNE 04:42:03 31° E 04:45:25 10° SSE visible
11 Mar ? 04:24:16 10° NE 04:27:17 22° E 04:30:15 10° SSE visible
12 Mar ? 04:10:07 10° NE 04:12:28 16° E 04:14:47 10° SE visible
13 Mar ? 03:56:31 10° ENE 03:57:35 11° E 03:58:37 10° ESE visible
14 Mar ? 17:35:10 10° W 17:35:56 10° W 17:36:44 10° WNW visible
17 Mar ? 04:29:40 10° NE 04:32:46 24° E 04:35:50 10° SSE visible
